Simultaneous Nadir Overpasses (SNOs) Predictions

Prediction of SNOs between GOES-16 and NOAA-20 Satellite Orbit:

Table of predicted SNOs for the next 14.0 days since TLE Epoch: 1/6/2024
Index Date Time (GOES-16) GOES-16 Lat,Lon NOAA-20 Lat,Lon Distance(km) Time Diff (sec)
1 01/07/2024 06:45:06 -0.03, -75.21 0.91, -79.50 488.03 80
2 01/08/2024 06:23:41 -0.02, -75.21 -0.09, -74.96 29.10 80
3 01/10/2024 18:26:50 0.01, -75.23 -0.09, -75.72 56.15 80
4 01/11/2024 18:10:45 0.00, -75.23 0.91, -71.19 461.28 80
5 01/13/2024 06:32:32 -0.00, -75.24 0.25, -76.46 138.45 80
6 01/14/2024 06:11:07 -0.00, -75.24 -0.76, -71.92 379.11 80
7 01/15/2024 18:33:02 0.01, -75.26 -0.41, -77.22 222.66 80
8 01/16/2024 18:16:57 0.01, -75.28 0.59, -72.68 295.58 80
9 01/18/2024 06:38:44 -0.01, -75.30 0.56, -77.95 302.35 80
10 01/19/2024 06:17:18 -0.00, -75.31 -0.45, -73.42 216.28 80
